www.pogodaiklimat.ru

Погода и климат >> Архив погоды >> Филиппины >> Тагбиларан


ПОГОДА в Тагбиларане

  • Прогноз погоды в Тагбиларане
  • Монитор погоды в Тагбиларане

АРХИВ ПОГОДЫ в Тагбиларане

Время (UTC), дата Ветер
(напр.,м/с)
 
Видим.   Явления Облачность Т
(С)
Тd
(С)
f
(%)
Тe
(С)
Тes
(С)
Комфортность P
(гПа)
Po
(гПа)
Тmin
(С)
Tmax
(С)
R
(мм)
R24
(мм)
S
(см)
03 10.09 З 3 15 км мгла {туман} 10/3 500 м
[Cu med, cong Ac As Cs]
+30.8 +24.8 70 +44 +50 опасность
перегрева
1012.1 1009.2
06 10.09 ЮЗ 3 15 км мгла {туман} 10/1 500 м
[Cu med, cong Ac trans Cs]
+31.4 +24.0 65 +43 +49 опасность
перегрева
1009.2 1006.3
09 10.09 З 3 15 км осадки на расстоянии {туман} 10/4 480 м
[Cb cap Ac As Cs]
+29.6 +24.9 76 +42 +43 опасность
перегрева
1009.2 1006.3
12 10.09 З 1 14 км {туман} 9/3 500 м
[Cu med, cong Ac cuf Cs]
+28.3 +23.6 76 +39 +39 очень
душно
1011.4 1008.5 +32.3
15 10.09 З 2 14 км 10/3 500 м
[Cu med, cong Ac As Cs]
+27.2 +24.0 83 +38 +38 очень
душно
1010.9 1008.0
18 10.09 ЮЗ 1 14 км 9/3 500 м
[Cu med, cong Ac und Cs]
+27.0 +24.3 85 +38 +38 очень
душно
1010.2 1007.3
21 10.09 З 2 14 км 10/3 500 м
[Cu med, cong Ac As Cs]
+27.3 +23.7 81 +37 +37 очень
душно
1010.4 1007.5
00 11.09 З 4 15 км мгла {туман} 8/3 500 м
[Cu med, cong Ac trans Ci fib]
+29.8 +24.5 73 +42 +44 опасность
перегрева
1011.5 1008.6 +26.9
03 11.09 З 3 15 км мгла {туман} 10/1 500 м
[Cu med, cong Ac trans Cs]
+32.0 +23.4 60 +43 +50 опасность
перегрева
1010.2 1007.3
06 11.09 ЮЗ 3 15 км мгла {туман} 10/4 480 м
[Cb cap Ac As Cs]
+30.4 +25.7 76 +45 +49 опасность
перегрева
1008.7 1005.8
09 11.09 З 3 15 км мгла {туман} 10/3 480 м
[Cb cap Ac As Cs]
+28.3 +22.5 71 +37 +38 очень
душно
1008.7 1005.8
12 11.09 ЮЗ 3 14 км зарница {ливн. осадки, туман} 10/3 480 м
[Cb cap Ac As Cs]
+24.7 +22.6 88 +32 +32 очень
душно
1009.1 1006.2 +32.6 0.8
15 11.09 З 1 12 км слаб. ливневой дождь 10/4 500 м
[Cu med, cong Ac As]
+24.7 +23.2 91 +33 +33 очень
душно
1008.9 1006.0 0.2
18 11.09 З 2 14 км {ливн. осадки} 9/3 500 м
[Cu med, cong Ac und Cs]
+26.2 +23.4 85 +36 +36 очень
душно
1007.0 1004.1 0.2
21 11.09 ЮЗ 3 14 км слаб. ливневой дождь 10/3 500 м
[Cu med, cong Ac As]
+26.6 +24.9 90 +38 +38 очень
душно
1006.2 1003.3 0.6
00 12.09 З 2 14 км слаб. дождь 10/4 500 м
[Cu med, cong Ac As]
+25.2 +24.4 95 +35 +36 очень
душно
1008.7 1005.8 +25.2 7
03 12.09 ЮЗ 4 14 км {ливн. осадки, дождь} 9/3 500 м
[Cu med, cong Ac As]
+28.2 +25.6 86 +42 +46 опасность
перегрева
1007.7 1004.8 0.0
06 12.09 ЮЗ 4 14 км слаб. ливневой дождь 10/3 500 м
[Cu med, cong Ac As]
+27.8 +25.4 87 +41 +43 опасность
перегрева
1006.2 1003.3 4
09 12.09 ЮЗ 4 15 км {дождь} 10/4 500 м
[Cu med, cong Ac As Cs]
+27.0 +24.9 88 +39 +39 очень
душно
1005.7 1002.8 6
12 12.09 ЮЗ 5 14 км в посл. час ливневой дождь 10/3 500 м
[Cu med, cong Ac As Cs]
+25.8 +24.6 93 +36 +36 очень
душно
1006.5 1003.6 +28.2 8
15 12.09 ЮЗ 5 14 км 10/3 500 м
[Cu med, cong Ac trans Cs]
+26.4 +24.3 88 +37 +37 очень
душно
1006.4 1003.5
18 12.09 ЮЗ 5 14 км 10/3 500 м
[Cu med, cong Ac As Cs]
+26.2 +23.9 87 +36 +36 очень
душно
1005.2 1002.3
21 12.09 Ю 5 14 км слаб. ливневой дождь 10/4 500 м
[Cu med, cong Ac As]
+26.2 +24.3 89 +36 +36 очень
душно
1005.4 1002.5 0.0
00 13.09 ЮЗ 5 15 км 9/3 500 м
[Cu med, cong Ac As Cs]
+28.0 +24.3 80 +39 +41 очень
душно
1007.2 1004.3 +26.2 13
03 13.09 ЮЗ 6 15 км мгла {туман} 9/3 500 м
[Cu med, cong Ac cuf Cs]
+29.0 +24.8 78 +41 +45 опасность
перегрева
1007.2 1004.3
06 13.09 ЮЗ 5 15 км мгла {туман} 9/3 500 м
[Cu med, cong Ac As Ci fib]
+29.6 +24.0 72 +41 +44 опасность
перегрева
1006.0 1003.1
09 13.09 ЮЗ 6 15 км мгла {туман} 10/4 500 м
[Cu med, cong Ac As]
+28.4 +23.6 75 +39 +39 очень
душно
1006.7 1003.8
12 13.09 ЮЗ 5 14 км {туман} 10/3 500 м
[Cu med, cong Ac As]
+26.5 +23.4 83 +36 +36 очень
душно
1008.2 1005.3 +29.8
15 13.09 Ю 2 14 км {ливн. осадки} 10/3 500 м
[Cu med, cong Ac As]
+26.0 +22.9 83 +35 +35 очень
душно
1008.8 1005.9 0.0
18 13.09 ЮЗ 2 14 км {ливн. осадки} 9/3 500 м
[Cu med, cong Ac As Cs]
+24.0 +22.7 92 +31 +31 очень
душно
1007.7 1004.8 5
21 13.09 ЮЗ 1 14 км 10/3 500 м
[Cu med, cong Ac As]
+24.0 +22.6 92 +31 +31 очень
душно
1007.2 1004.3
00 14.09 Ю 2 15 км мгла {туман} 10/10 500 м
[]
+28.0 +25.1 84 +40 +40 очень
душно
1009.8 1006.9 +24.0 5 5
03 14.09 ЮЗ 6 15 км мгла {туман} 9/1 500 м
[Cu med, cong Ac trans Cs]
+29.0 +24.2 75 +40 +44 очень
душно
1009.4 1006.5 0.2
06 14.09 ЮЗ 4 15 км мгла {туман} 8/1 500 м
[Cu med, cong Ac trans Cs]
+30.0 +24.5 72 +42 +48 опасность
перегрева
1007.1 1004.2 0.2
09 14.09 ЮЗ 4 15 км мгла {туман} 8/1 500 м
[Cu med, cong Ac As Cs]
+28.8 +23.2 72 +39 +39 очень
душно
1007.7 1004.8
12 14.09 З 1 14 км {туман} 9/1 500 м
[Cu med, cong Ac As Cs]
+27.0 +22.9 78 +36 +36 очень
душно
1009.4 1006.5 +30.8
15 14.09 ЮЗ 3 14 км 9/1 500 м
[Cu med, cong Ac trans Cs]
+26.5 +22.4 78 +35 +35 очень
душно
1010.1 1007.2
18 14.09 ЮЗ 3 14 км 10/1 500 м
[Cu med, cong Ac As]
+26.0 +21.9 78 +33 +33 очень
душно
1008.9 1006.0
21 14.09 ЮЗ 2 14 км 8/3 500 м
[Cu med, cong Ac As Cs]
+24.5 +21.7 84 +31 +31 очень
душно
1008.6 1005.7
00 15.09 ЮЗ 2 15 км мгла {туман} 10/3 500 м
[Cu med, cong Ac trans Cs]
+26.0 +23.3 85 +35 +37 очень
душно
1011.4 1008.5 +25.0 0.2
03 15.09 ЮЗ 4 15 км мгла {туман} 10/1 500 м
[Cu med, cong Ac trans Cs]
+29.6 +24.6 75 +42 +49 опасность
перегрева
1010.4 1007.5
06 15.09 ЮЗ 3 15 км мгла {туман} 10/1 500 м
[Cu med, cong Ac cuf Cs]
+28.5 +23.1 73 +38 +44 очень
душно
1008.7 1005.8
09 15.09 ЮЗ 2 15 км мгла {туман} 10/1 500 м
[Cu med, cong Ac cast Cs]
+29.3 +24.3 75 +41 +42 опасность
перегрева
1008.6 1005.7
12 15.09 штиль 0 14 км {туман} 8/1 500 м
[Cu med, cong Ac As Cs]
+26.0 +23.3 85 +35 +35 очень
душно
1009.9 1007.0 +30.8
15 15.09 штиль 0 14 км 10/1 500 м
[Cu med, cong Ac cuf Cs]
+25.0 +23.0 89 +33 +33 очень
душно
1010.5 1007.6
18 15.09 ЮЗ 1 14 км 10/1 500 м
[Cu med, cong Ac cuf Cs]
+24.0 +22.6 92 +31 +31 очень
душно
1008.5 1005.6
21 15.09 ЮЗ 2 14 км 10/1 500 м
[Cu med, cong Ac As]
+24.5 +22.7 90 +32 +32 очень
душно
1008.7 1005.8
00 16.09 Ю 3 15 км мгла 8/3 500 м
[Cu med, cong Ac cuf Cs]
+27.8 +25.4 87 +41 +43 опасность
перегрева
1011.1 1008.2 +24.4
03 16.09 ЮЗ 5 14 км 9/1 500 м
[Cu med, cong Ac cuf Cs]
+30.0 +25.6 77 +44 +50 опасность
перегрева
1010.3 1007.4
06 16.09 ЮЗ 5 15 км мгла {туман} 10/1 500 м
[Cu med, cong Ac cuf Cs]
+31.0 +23.8 66 +43 +46 опасность
перегрева
1007.3 1004.4
09 16.09 ЮЗ 3 15 км мгла {туман} 10/1 500 м
[Cu med, cong Ac und Cs]
+29.7 +23.1 68 +40 +40 очень
душно
1007.0 1004.1
12 16.09 ЮЗ 2 14 км {туман} 8/3 500 м
[Cu med, cong Ac trans Cs]
+28.3 +25.0 82 +41 +41 опасность
перегрева
1008.6 1005.7 +31.6
15 16.09 Ю 2 14 км 6/1 500 м
[Cu med, cong Ac trans Ci fib]
+27.2 +24.8 87 +39 +39 очень
душно
1008.9 1006.0
18 16.09 Ю 2 14 км 9/1 500 м
[Cu med, cong Ac cuf Cs]
+27.0 +24.3 85 +38 +38 очень
душно
1008.3 1005.4
21 16.09 Ю 1 14 км 8/1 500 м
[Cu med, cong Ac trans Ci fib]
+26.5 +24.8 90 +38 +38 очень
душно
1008.6 1005.7

 

Местоположение метеостанции Тагбиларан (Филиппины): широта 9.60 долгота 123.85 высота над уровнем моря 8 м.

В архиве по умолчанию представлена погода в Тагбиларане за последнюю неделю. Архивные данные за месяц целиком и за предыдущие месяцы, начиная с января 2011 года, Вы можете получить, выбрав интересующий диапазон дат из раскрывающегося списка и нажав кнопку "Ввод!".


*Определитесь, кто Вы:
робот инопланетянин человек

Внимание! Время в таблицах - всемирное. Для получения местного времени необходимо прибавить поправку, которая равна 8 ч.

Смотрите также архив погоды в соседних городах и на ближайших метеорологических станциях:

Погода в Думагете (Филиппины) (69 км)
Погода в Мактане (Филиппины) (79 км)
Погода в Маасине (Филиппины) (123 км)
Погода в Дипологе (Филиппины) (124 км)
Погода в Кагаян-де-Оро (Филиппины) (138 км)
Погода в Серигао Сити (Филиппины) (182 км)
Погода в Бутуане (Филиппины) (197 км)
Погода в Малайбалае (Филиппины) (210 км)
Погода в Таклобане (Филиппины) (222 км)
Погода в Рохасе (Филиппины) (251 км)

Пояснения к столбцам:

Ветер - указаны скорость ветра в м/с - средняя за 10 мин, порывы в срок и между сроками (в фигурных скобках) и направление, откуда дует ветер: С - северный, СВ - северо-восточный, В - восточный, ЮВ - юго-восточный, Ю - южный, ЮЗ - юго-западный, З - западный, СЗ - северо-западный.
Видимость - горизонтальная дальность видимости в метрах или километрах. При видимости от 1 до 10 км при отсутствии осадков обычно наблюдается дымка, при ухудшении видимости до 1 км и менее - туман. В сухую погоду видимость может ухудшаться дымом, пылью или мглою.
Явления - указаны атмосферные явления, наблюдавшиеся в срок или в последний час перед сроком; фигурными скобками обозначены явления, наблюдавшиеся между сроками (за 1-3 часа до срока); квадратными скобками обозначены град или гололедные отложения с указанием их диаметра в мм.
Облачность - указаны через наклонную черту общая и нижняя облачность в баллах и высота нижней границы облаков в метрах; квадратными скобками обозначены формы облаков: Ci - перистые, Cs - перисто-слоистые, Cc - перисто-кучевые, Ac - высококучевые, As - высокослоистые, Sc - слоисто-кучевые, Ns - слоисто-дождевые, Cu - кучевые, Cb - кучево-дождевые. Подробнее классификацию облаков см. в Атласе облаков (PDF).
T - Температура воздуха - температура, измеренная на высоте 2 м над землей.
Td - Температура точки росы - температура, при понижении до которой содержащийся в воздухе водяной пар достигнет насыщения.
f - Относительная влажность воздуха - влажноcть воздуха, измеренная на высоте 2 м над землей.
Te - Эффективная температура - температура, которую ощущает одетый по сезону человек в тени. Характеристика душности погоды. При расчете учитывается влияние влажности воздуха и скорости ветра на теплоощущения человека.
Tes - Эффективная температура на солнце - температура, которую ощущает человек, с поправкой на солнечный нагрев. Характеристика знойности погоды. Зависит от высоты солнца над горизонтом, облачности и скорости ветра. Ночью, в пасмурную погоду, а также при ветре 12 м/с и более поправка равна нулю.
P - Атмосферное давление - приведенное к уровню моря атмосферное давление.
Po - Атмосферное давление - измеренное на уровне метеостанции атмосферное давление.
Tmin - Минимальная температура - минимум температуры воздуха на высоте 2 м над землей.
Tmax - Максимальная температура - максимум температуры воздуха на высоте 2 м над землей.
R - Количество осадков - Количество выпавших осадков за период времени, мм. При наведении курсора мыши на число - период времени, за который выпало указанное количество осадков.
R24 - Количество осадков - Количество выпавших осадков за 24 часа, мм.
S - Снежный покров - Высота снежного покрова, см. При наведении курсора мыши на число - состояние снежного покрова и степень покрытия местности в баллах.